Location: Aranbee
(34.0885°N, 118.2342°W)
Time: 21:58:37
(UTC+00:00)

Tiros 1 - Pass Details

Date: 26 November 2020
Orbit: 630 x 663 km, 48.4° (Epoch: 19 January)

Event Time Altitude Azimuth Distance (km) Brightness Sun altitude
Rises 07:49:01 0° 295° (WNW) 2,951 - -76.8°
Reaches altitude 10° 07:51:43 10° 281° (WNW) 2,032 - -76.7°
Maximum altitude 07:55:25 23° 229° (SW) 1,338 - -76.5°
Drops below altitude 10° 07:59:05 10° 176° (S) 2,008 - -76.3°
Sets 08:01:45 0° 162° (SSE) 2,907 - -76.1°
